SCP
-0 -0 0 -0 -0 -0 -0 -0 -0 -0 -0 -0 -0 -0 -0 -0 -0 -0 -0 -0 -0 0 0 -0 -0 -0 -0 0 0 0 0 0
-0 -0 -0 -0 -0 -0 -0 -0 -0 -0 -0 -0 -0 -0 -0 -0 -0 0 0 -0 0 0 0 -0 -0 -0 0 0 0 0 0 0
-0 -0 -0 -0 -0 -0 -0 -0 -0 -0 -0 -0 -0 -0 -0 -0 -0 -0 0 0 0 0 0 -0 -0 -0 0 0 0 0 0 0
-0 -0 -0 -0 -0 -0 -0 -0 -0 -0 -0 -0 0 -0 -0 -0 -0 -0 0 0 -0 0 0 -0 -0 0 0 -0 -0 0 0 0
-0 -0 -0 -0 -0 -0 -0 -0 -0 -0 -0 -0 -0 -0 -0 -0 -0 -0 -0 0 0 0 0 -0 -0 0 0 -0 -0 0 0 0
-0 -0 -0 -0 -0 -0 -0 -0 -0 -0 -0 -0 -0 -0 -0 -0 -0 0 0 0 -0 0 0 -0 0 0 0 0 0 0 0 0
-0 -0 -0 -0 -0 -0 -0 -0 -0 -0 -0 -0 -0 -0 -0 -0 -0 0 -0 -0 -0 -0 0 0 0 0 0 0 0 0 -0 0
-0 -0 -0 -0 -0 -0 -0 -0 -0 -0 -0 -0 -0 0 0 0 -0 0 0 0 0 0 0 0 0 0 0 0 0 0 0 0
0 -0 -0 -0 -0 -0 -0 -0 -0 -0 -0 -0 -0 0 0 0 0 0 0 0 0 0 0 0 -0 0 0 0 0 0 0 0
0 0 -0 -0 -0 -0 -0 -0 -0 -0 -0 -0 -0 -0 0 0 0 0 0 0 0 0 0 0 -0 -0 0 0 0 0 0 -0
0 0 -0 -0 -0 -0 -0 -0 -0 -0 -0 -0 -0 -0 -0 -0 0 0 0 0 0 0 0 -0 0 -0 -0 0 0 0 0 0
0 0 -0 -0 -0 -0 -0 -0 -0 -0 -0 -0 -0 -0 -0 -0 0 0 0 0 0 0 0 0 0 0 0 0 0 0 0 0
0 0 -0 -0 -0 -0 -0 -0 -0 -0 -0 -0 -0 -0 -0 -0 0 0 0 0 0 0 0 0 0 0 0 0 0 0 0 0
0 0 0 -0 -0 -0 -0 -0 -0 -0 -0 -0 -0 -0 -0 0 0 0 0 0 -0 -0 0 0 -0 -0 -0 0 -0 -0 -0 -0
0 0 0 0 -0 -0 -0 -0 -0 -0 -0 -0 -0 -0 0 0 0 0 0 0 0 0 -0 -0 0 -0 -0 -0 -0 0 -0 -0
0 0 0 0 -0 -0 -0 -0 -0 -0 -0 -0 -0 -0 0 0 0 0 0 0 -0 0 -0 -0 -0 -0 -0 -0 -0 -0 -0 0
1 0 0 0 0 -0 -0 -0 -0 -0 -0 -0 -0 -0 0 0 0 0 0 0 0 -0 -0 0 -0 -0 -0 -0 -0 -0 -0 -0
1 0 0 0 0 0 -0 -0 -0 -0 -0 0 0 0 0 0 0 0 0 0 0 0 0 0 0 0 0 -0 -0 -0 -0 -0
1 1 0 0 0 0 0 0 0 0 0 0 0 0 0 0 0 0 0 0 0 0 0 0 -0 0 -0 -0 -0 -0 -0 0
2 2 2 1 1 0 0 0 0 0 0 0 0 0 0 0 0 0 0 0 0 0 0 0 0 0 0 0 0 0 -0 -0
Wind_Speed_500mb
50 50 50 47 42 39 35 31 29 26 23 19 15 13 10 11 14 13 15 14 11 10 6 4 5 6 5 2 7 14 13 15
49 48 47 45 42 40 34 32 29 27 24 17 16 9 11 13 14 17 20 15 13 12 9 6 9 11 10 9 13 11 13 16
47 48 47 45 42 39 34 33 30 28 23 20 13 12 14 15 15 15 21 21 19 13 16 13 13 13 10 20 12 10 12 20
46 47 46 45 43 40 37 34 32 29 25 22 19 18 19 16 16 17 21 21 22 15 19 13 16 12 13 19 18 14 17 26
45 48 48 46 44 41 39 36 33 31 28 23 23 22 21 21 19 18 16 18 20 22 18 19 15 17 12 13 20 15 16 27
39 43 44 45 44 42 38 37 36 33 30 27 25 25 23 23 20 19 18 21 23 24 21 18 17 15 9 12 20 13 17 26
39 42 43 42 45 46 43 40 38 35 32 30 28 27 23 22 19 19 18 12 14 17 22 24 18 16 11 12 24 19 24 31
40 44 46 45 45 46 46 43 41 38 35 32 30 27 23 21 18 18 16 12 12 13 18 21 21 16 16 21 29 21 32 36
37 44 48 48 48 47 46 45 44 40 36 35 32 29 26 23 19 13 18 17 10 15 22 25 21 18 23 29 30 25 38 40
39 46 49 50 50 50 46 46 44 42 40 39 35 33 29 23 20 19 16 19 20 22 22 23 21 22 21 24 31 33 40 38
40 46 50 51 53 52 50 46 47 46 43 42 40 34 31 26 23 23 21 20 19 20 22 19 23 15 15 21 34 31 41 43
38 48 54 55 55 53 49 48 48 48 47 45 42 38 35 30 26 23 21 22 20 20 25 22 21 20 21 32 45 46 49 47
35 48 52 54 55 54 52 51 52 51 49 47 45 41 40 34 30 25 23 23 22 20 20 21 24 24 26 33 40 46 39 39
30 45 52 55 57 57 56 55 56 55 54 50 47 44 44 38 36 33 33 29 34 27 27 25 25 23 27 36 40 37 34 37
28 43 50 53 56 58 58 58 58 58 58 53 48 46 43 44 41 37 37 36 33 41 38 31 29 29 26 31 43 42 39 35
25 35 48 54 58 61 60 60 61 59 62 55 50 49 44 45 43 42 38 38 39 40 46 47 35 33 33 36 40 40 44 43
14 32 43 53 58 62 62 62 65 63 61 55 52 46 46 43 42 42 40 40 38 38 39 51 55 48 42 42 43 42 39 41
13 26 35 49 57 62 63 64 69 64 64 58 58 49 48 47 46 44 42 42 41 42 45 46 60 58 56 60 60 57 46 45
16 14 26 39 49 55 63 64 71 61 58 60 63 55 50 51 50 49 46 45 45 45 46 47 52 66 57 56 63 66 59 52
19 9 11 18 32 47 59 66 70 65 61 58 67 61 52 53 52 52 51 51 50 49 47 48 57 49 53 53 54 58 62 63
Wind_Direction_500mb
159 160 163 160 160 164 164 161 165 170 169 175 183 197 179 156 161 158 157 161 165 163 158 162 286 91 76 42 187 173 198 206
162 166 165 163 165 167 165 164 168 168 171 173 166 178 155 150 158 154 156 159 165 158 151 177 109 91 96 91 111 121 140 147
168 170 168 165 168 166 166 167 168 168 168 163 164 142 137 151 154 154 152 162 156 156 146 119 121 100 122 103 85 101 115 126
173 173 171 169 170 168 169 169 168 166 165 158 148 144 146 151 145 146 148 153 151 154 146 137 119 137 103 111 109 103 111 128
180 178 175 173 172 170 171 170 167 165 162 154 149 149 150 147 148 150 152 154 150 155 152 150 157 146 108 96 112 97 119 129
182 183 178 174 171 171 170 171 168 166 164 159 155 158 157 156 158 159 165 170 163 166 165 163 159 162 151 118 124 106 121 131
185 183 179 177 174 171 171 171 169 169 167 164 161 162 161 160 166 170 172 181 164 168 172 172 155 167 165 150 130 132 127 118
181 181 179 177 178 176 172 173 172 174 170 167 167 169 169 164 157 158 163 155 136 156 156 156 159 160 147 135 134 143 144 132
182 180 180 179 179 178 178 176 177 175 171 169 166 164 162 159 155 156 150 143 140 123 134 138 137 135 128 142 141 147 135 135
186 181 181 181 182 181 183 181 177 174 173 172 170 166 166 167 160 148 148 147 127 119 121 123 129 127 121 138 154 142 133 130
191 186 183 184 185 185 185 185 179 176 175 176 176 174 173 172 167 155 156 153 146 136 136 138 139 137 136 138 149 156 155 148
196 190 187 186 187 188 187 186 182 179 178 178 179 179 177 176 175 168 167 163 164 167 154 152 141 144 137 142 143 141 143 147
203 195 190 190 189 189 187 187 184 183 182 181 182 184 182 182 179 181 179 176 176 173 168 162 158 154 163 151 148 154 150 155
206 200 195 193 192 191 188 189 187 185 185 186 186 186 189 189 186 190 191 189 191 187 174 173 177 184 185 171 158 167 170 177
218 205 200 196 194 193 192 190 189 189 187 189 190 188 193 192 194 195 196 199 200 194 188 188 179 189 200 194 181 180 183 183
227 210 204 200 197 196 194 192 192 192 192 194 192 191 197 197 198 198 199 200 199 199 199 199 190 198 202 196 191 191 195 196
242 213 207 203 200 199 195 193 193 192 192 195 194 198 199 199 201 201 202 201 201 201 200 201 204 205 200 199 201 199 200 205
302 220 213 207 205 202 198 195 194 195 196 194 196 199 200 202 201 203 203 203 202 202 203 205 206 204 207 205 206 206 210 216
329 270 220 213 211 206 203 201 198 199 200 199 201 196 203 205 204 205 204 204 204 205 207 208 211 209 207 211 216 217 215 217
348 284 247 213 213 211 207 206 204 203 203 204 205 202 205 206 208 207 208 208 208 209 210 211 218 220 210 215 220 225 225 224
Wind_Speed_850mb
50 50 50 47 42 39 35 31 29 26 23 19 15 13 10 11 14 13 15 14 11 10 6 4 5 6 5 2 7 14 13 15
49 48 47 45 42 40 34 32 29 27 24 17 16 9 11 13 14 17 20 15 13 12 9 6 9 11 10 9 13 11 13 16
47 48 47 45 42 39 34 33 30 28 23 20 13 12 14 15 15 15 21 21 19 13 16 13 13 13 10 20 12 10 12 20
46 47 46 45 43 40 37 34 32 29 25 22 19 18 19 16 16 17 21 21 22 15 19 13 16 12 13 19 18 14 17 26
45 48 48 46 44 41 39 36 33 31 28 23 23 22 21 21 19 18 16 18 20 22 18 19 15 17 12 13 20 15 16 27
39 43 44 45 44 42 38 37 36 33 30 27 25 25 23 23 20 19 18 21 23 24 21 18 17 15 9 12 20 13 17 26
39 42 43 42 45 46 43 40 38 35 32 30 28 27 23 22 19 19 18 12 14 17 22 24 18 16 11 12 24 19 24 31
40 44 46 45 45 46 46 43 41 38 35 32 30 27 23 21 18 18 16 12 12 13 18 21 21 16 16 21 29 21 32 36
37 44 48 48 48 47 46 45 44 40 36 35 32 29 26 23 19 13 18 17 10 15 22 25 21 18 23 29 30 25 38 40
39 46 49 50 50 50 46 46 44 42 40 39 35 33 29 23 20 19 16 19 20 22 22 23 21 22 21 24 31 33 40 38
40 46 50 51 53 52 50 46 47 46 43 42 40 34 31 26 23 23 21 20 19 20 22 19 23 15 15 21 34 31 41 43
38 48 54 55 55 53 49 48 48 48 47 45 42 38 35 30 26 23 21 22 20 20 25 22 21 20 21 32 45 46 49 47
35 48 52 54 55 54 52 51 52 51 49 47 45 41 40 34 30 25 23 23 22 20 20 21 24 24 26 33 40 46 39 39
30 45 52 55 57 57 56 55 56 55 54 50 47 44 44 38 36 33 33 29 34 27 27 25 25 23 27 36 40 37 34 37
28 43 50 53 56 58 58 58 58 58 58 53 48 46 43 44 41 37 37 36 33 41 38 31 29 29 26 31 43 42 39 35
25 35 48 54 58 61 60 60 61 59 62 55 50 49 44 45 43 42 38 38 39 40 46 47 35 33 33 36 40 40 44 43
14 32 43 53 58 62 62 62 65 63 61 55 52 46 46 43 42 42 40 40 38 38 39 51 55 48 42 42 43 42 39 41
13 26 35 49 57 62 63 64 69 64 64 58 58 49 48 47 46 44 42 42 41 42 45 46 60 58 56 60 60 57 46 45
16 14 26 39 49 55 63 64 71 61 58 60 63 55 50 51 50 49 46 45 45 45 46 47 52 66 57 56 63 66 59 52
19 9 11 18 32 47 59 66 70 65 61 58 67 61 52 53 52 52 51 51 50 49 47 48 57 49 53 53 54 58 62 63
Wind_Direction_850mb
159 160 163 160 160 164 164 161 165 170 169 175 183 197 179 156 161 158 157 161 165 163 158 162 286 91 76 42 187 173 198 206
162 166 165 163 165 167 165 164 168 168 171 173 166 178 155 150 158 154 156 159 165 158 151 177 109 91 96 91 111 121 140 147
168 170 168 165 168 166 166 167 168 168 168 163 164 142 137 151 154 154 152 162 156 156 146 119 121 100 122 103 85 101 115 126
173 173 171 169 170 168 169 169 168 166 165 158 148 144 146 151 145 146 148 153 151 154 146 137 119 137 103 111 109 103 111 128
180 178 175 173 172 170 171 170 167 165 162 154 149 149 150 147 148 150 152 154 150 155 152 150 157 146 108 96 112 97 119 129
182 183 178 174 171 171 170 171 168 166 164 159 155 158 157 156 158 159 165 170 163 166 165 163 159 162 151 118 124 106 121 131
185 183 179 177 174 171 171 171 169 169 167 164 161 162 161 160 166 170 172 181 164 168 172 172 155 167 165 150 130 132 127 118
181 181 179 177 178 176 172 173 172 174 170 167 167 169 169 164 157 158 163 155 136 156 156 156 159 160 147 135 134 143 144 132
182 180 180 179 179 178 178 176 177 175 171 169 166 164 162 159 155 156 150 143 140 123 134 138 137 135 128 142 141 147 135 135
186 181 181 181 182 181 183 181 177 174 173 172 170 166 166 167 160 148 148 147 127 119 121 123 129 127 121 138 154 142 133 130
191 186 183 184 185 185 185 185 179 176 175 176 176 174 173 172 167 155 156 153 146 136 136 138 139 137 136 138 149 156 155 148
196 190 187 186 187 188 187 186 182 179 178 178 179 179 177 176 175 168 167 163 164 167 154 152 141 144 137 142 143 141 143 147
203 195 190 190 189 189 187 187 184 183 182 181 182 184 182 182 179 181 179 176 176 173 168 162 158 154 163 151 148 154 150 155
206 200 195 193 192 191 188 189 187 185 185 186 186 186 189 189 186 190 191 189 191 187 174 173 177 184 185 171 158 167 170 177
218 205 200 196 194 193 192 190 189 189 187 189 190 188 193 192 194 195 196 199 200 194 188 188 179 189 200 194 181 180 183 183
227 210 204 200 197 196 194 192 192 192 192 194 192 191 197 197 198 198 199 200 199 199 199 199 190 198 202 196 191 191 195 196
242 213 207 203 200 199 195 193 193 192 192 195 194 198 199 199 201 201 202 201 201 201 200 201 204 205 200 199 201 199 200 205
302 220 213 207 205 202 198 195 194 195 196 194 196 199 200 202 201 203 203 203 202 202 203 205 206 204 207 205 206 206 210 216
329 270 220 213 211 206 203 201 198 199 200 199 201 196 203 205 204 205 204 204 204 205 207 208 211 209 207 211 216 217 215 217
348 284 247 213 213 211 207 206 204 203 203 204 205 202 205 206 208 207 208 208 208 209 210 211 218 220 210 215 220 225 225 224